STARLINK-5262 (54207 NORAD) Tracking and Keplerian Element Data

This shows tracking and keplerian element data for the satellite.

Feedback or suggestion? Click here.




ElementValue
Catalog54207
NameSTARLINK-5262
Epoch Orbit402
Epoch Day324.91667824
Epoch Year2022
RAAN25.7222
Inclination53.2178
Eccentricity0.0002866
Argument of Perigee10.6177
Mean Anonmoly299.7931
Mean Motion15.73200354
Decay Rate-0.00057642
L11 54207U 22141BC 22324.91667824 -.00057642 00000+0 -40898-3 0 9991
L22 54207 53.2178 25.7222 0002866 10.6177 299.7931 15.73200354 4026



Live tracking and technical data element details for STARLINK-5262 (NORAD 54207). STARLINK-5262 can be tracked NOW for your location showing map with azimuth and elevation plus other details from your city location.







IsCatalogInMostPopularTable: catalog: 54207, numindb: 8
Update: records affected: 1



GetName: 54207 STARLINK-5262

Hit Count: updated at: Fri, 09 Dec 2022 18:46:56 GMT